Hourly Data Report for June 22, 2021

WINNIPEG THE FORKS
MANITOBA
Current Station Operator: ECCC - MSC

49°53'18.008" N
97°07'46.007" W
230.00 m
5023262
71579
XWN

Download Data

Hourly Data (June 2021)
Hourly Data Report for June 22, 2021
TIME
LST
Temp Definition
°C
Dew Point Definition
°C
Rel Hum Definition
%
Precip. Amount Definition
mm

Wind Dir Definition
10's deg

Wind Spd Definition
km/h
Visibility Definition
km
Stn Press Definition
kPa
Hmdx Definition


Wind Chill Definition


Weather Definition


00:00 12.4 3.1 53 0.0 20 4   98.22     LegendNANA
01:00 11.8 3.8 58 0.0 20 4   98.17     LegendNANA
02:00 11.9 3.6 57 0.0 20 5   98.11     LegendNANA
03:00 11.5 3.0 56 0.0 20 5   98.07     LegendNANA
04:00 11.0 2.7 57 0.0 20 9   98.02     LegendNANA
05:00 10.6 2.8 59 0.0 21 7   98.02     LegendNANA
06:00 11.4 3.0 56 0.0 20 6   97.97     LegendNANA
07:00 12.6 3.7 55 0.0 21 7   97.96     LegendNANA
08:00 15.4 4.6 49 0.0 25 6   97.95     LegendNANA
09:00 18.5 6.4 45 0.0 26 7   97.92     LegendNANA
10:00 21.0 5.3 36 0.0 29 9   97.86     LegendNANA
11:00 21.9 5.0 33 0.0 27 6   97.83     LegendNANA
12:00 23.1 7.0 36 0.0 32 7   97.80     LegendNANA
13:00 23.6 5.8 32 0.0 22 7   97.76     LegendNANA
14:00 25.1 7.1 32 0.0 24 9   97.74 25   LegendNANA
15:00 25.9 6.7 29 0.0 30 6   97.75 26   LegendNANA
16:00 24.3 6.1 31 0.0 27 6   97.76     LegendNANA
17:00 23.8 6.3 32 0.0 29 4   97.72     LegendNANA
18:00 23.9 6.0 31 0.0 29 3   97.68     LegendNANA
19:00 24.1 6.2 32 0.0 10 3   97.60     LegendNANA
20:00 22.5 7.3 37 0.0 0 1   97.59     LegendNANA
21:00 21.3 7.5 41 0.0 26 1   97.56     LegendNANA
22:00 20.5 7.8 44 0.0 27 2   97.52     LegendNANA
23:00 20.0 8.2 47 0.0 20 5   97.46     LegendNANA

Notes on Data Quality.

Legend

  • E = Estimated
  • M = Missing
  • NA = Not Available*
  • [empty] = Indicates an unobserved value
Date modified: